| time (UTC) | temp C | wind direction | speed KPH | gust KPH | rain 1hr cm | rain 24hr cm | rain mn cm | humidity % | barometer mb |
| 20260504202522 | 25 | 253 | 16.1 | 17.7 | 0.00 | 0.00 | 0.00 | ||
| 20260504201517 | 25 | 229 | 14.5 | 11.3 | 0.00 | 0.00 | 0.00 | ||
| 20260504200521 | 25 | 250 | 12.9 | 6.4 | 0.00 | 0.00 | 0.00 | ||
| 20260504195522 | 25 | 264 | 16.1 | 20.9 | 0.00 | 0.00 | 0.00 | ||
| 20260504194505 | 25 | 211 | 16.1 | 12.9 | 0.00 | 0.00 | 0.00 | ||
| 20260504193501 | 25 | 242 | 20.9 | 11.3 | 0.00 | 0.00 | 0.00 | ||
| 20260504192455 | 25 | 221 | 14.5 | 4.8 | 0.00 | 0.00 | 0.00 | ||
| 20260504191452 | 25 | 222 | 9.7 | 3.2 | 0.00 | 0.00 | 0.00 | ||
| 20260504190444 | 25 | 260 | 11.3 | 8.0 | 0.00 | 0.00 | 0.00 | ||
| 20260504184434 | 25 | 262 | 14.5 | 14.5 | 0.00 | 0.00 | 0.00 | ||
| 20260504183430 | 25 | 276 | 8.0 | 8.0 | 0.00 | 0.00 | 0.00 | ||
| 20260504182427 | 25 | 269 | 14.5 | 16.1 | 0.00 | 0.00 | 0.00 | ||
| 20260504181421 | 25 | 277 | 12.9 | 11.3 | 0.00 | 0.00 | 0.00 | ||
| 20260504180418 | 24 | 266 | 17.7 | 16.1 | 0.00 | 0.00 | 0.00 | ||
| 20260504175410 | 24 | 264 | 16.1 | 12.9 | 0.00 | 0.00 | 0.00 | ||
| 20260504174405 | 24 | 260 | 14.5 | 14.5 | 0.00 | 0.00 | 0.00 | ||
| 20260504173357 | 24 | 269 | 14.5 | 14.5 | 0.00 | 0.00 | 0.00 | ||
| 20260504172359 | 24 | 287 | 8.0 | 8.0 | 0.00 | 0.00 | 0.00 | ||
| 20260504171345 | 24 | 274 | 12.9 | 9.7 | 0.00 | 0.00 | 0.00 | ||
| 20260504170340 | 24 | 252 | 9.7 | 6.4 | 0.00 | 0.00 | 0.00 | ||
| 20260504160307 | 22 | 262 | 6.4 | 11.3 | 0.00 | 0.00 | 0.00 | ||
| 20260504150241 | 19 | 270 | 12.9 | 11.3 | 0.00 | 0.00 | 0.00 | ||
| 20260504141205 | 17 | 259 | 12.9 | 16.1 | 0.00 | 0.00 | 0.00 | ||
| 20260504140159 | 17 | 262 | 14.5 | 8.0 | 0.00 | 0.00 | 0.00 | ||
| 20260504130126 | 15 | 257 | 14.5 | 20.9 | 0.00 | 0.00 | 0.00 | ||
| 20260504081834 | 11 | 174 | 6.4 | 1.6 | 0.00 | 0.00 | 0.00 | ||
| 20260504080829 | 11 | 228 | 1.6 | 6.4 | 0.00 | 0.00 | 0.00 | ||
| 20260504050750 | 10 | 259 | 8.0 | 11.3 | 0.00 | 0.00 | 0.00 | ||
| 20260504050603 | 10 | 259 | 8.0 | 11.3 | 0.00 | 0.00 | 0.00 | ||
| 20260504044554 | 9 | 170 | 0.0 | 0.0 | 0.00 | 0.00 | 0.00 | ||
| 20260504043549 | 9 | 273 | 3.2 | 3.2 | 0.00 | 0.00 | 0.00 | ||
| 20260504042544 | 9 | 225 | 4.8 | 3.2 | 0.00 | 0.00 | 0.00 | ||
| 20260504041539 | 8 | 229 | 4.8 | 4.8 | 0.00 | 0.00 | 0.00 | ||
| 20260504040529 | 8 | 153 | 0.0 | 0.0 | 0.00 | 0.00 | 0.00 | ||
| 20260504035520 | 8 | 153 | 0.0 | 0.0 | 0.00 | 0.00 | 0.00 | ||
| 20260504034507 | 9 | 153 | 0.0 | 0.0 | 0.00 | 0.00 | 0.00 | ||
| 20260504033457 | 9 | 236 | 0.0 | 0.0 | 0.00 | 0.00 | 0.00 | ||
| 20260504032450 | 8 | 236 | 0.0 | 0.0 | 0.00 | 0.00 | 0.00 | ||
| 20260504031444 | 9 | 236 | 0.0 | 0.0 | 0.00 | 0.00 | 0.00 | ||
| 20260504030438 | 8 | 236 | 0.0 | 0.0 | 0.00 | 0.00 | 0.00 | ||
| 20260504025432 | 8 | 236 | 0.0 | 0.0 | 0.00 | 0.00 | 0.00 | ||
| 20260504024421 | 10 | 236 | 0.0 | 0.0 | 0.00 | 0.00 | 0.00 | ||
| 20260504023414 | 8 | 236 | 0.0 | 0.0 | 0.00 | 0.00 | 0.00 | ||
| 20260504022405 | 8 | 236 | 0.0 | 0.0 | 0.00 | 0.00 | 0.00 | ||
| 20260504021341 | 9 | 236 | 0.0 | 0.0 | 0.00 | 0.00 | 0.00 | ||
| 20260504020337 | 8 | 236 | 0.0 | 0.0 | 0.00 | 0.00 | 0.00 | ||
| 20260504015329 | 9 | 236 | 0.0 | 0.0 | 0.00 | 0.00 | 0.00 | ||
| 20260504014322 | 9 | 236 | 0.0 | 0.0 | 0.00 | 0.00 | 0.00 | ||
| 20260504011303 | 10 | 236 | 0.0 | 0.0 | 0.00 | 0.00 | 0.00 | ||
| 20260504010246 | 10 | 236 | 0.0 | 0.0 | 0.00 | 0.00 | 0.00 | ||
| 20260504005232 | 10 | 236 | 0.0 | 0.0 | 0.00 | 0.00 | 0.00 | ||
| 20260504004213 | 10 | 236 | 0.0 | 0.0 | 0.00 | 0.00 | 0.00 | ||
| 20260504003207 | 10 | 236 | 0.0 | 0.0 | 0.00 | 0.00 | 0.00 | ||
| 20260504002157 | 11 | 236 | 0.0 | 0.0 | 0.00 | 0.00 | 0.00 | ||
| 20260504001150 | 12 | 269 | 0.0 | 0.0 | 0.00 | 0.00 | 0.00 | ||
| 20260504000148 | 12 | 269 | 0.0 | 0.0 | 0.00 | 0.00 | 0.00 | ||
| 20260503235136 | 13 | 210 | 0.0 | 0.0 | 0.00 | 0.00 | 0.00 | ||
| 20260503234128 | 13 | 262 | 0.0 | 0.0 | 0.00 | 0.00 | 0.00 | ||
| 20260503233122 | 14 | 252 | 0.0 | 3.2 | 0.00 | 0.00 | 0.00 | ||
| 20260503232115 | 14 | 243 | 3.2 | 4.8 | 0.00 | 0.00 | 0.00 | ||
| 20260503231108 | 15 | 307 | 0.0 | 3.2 | 0.00 | 0.00 | 0.00 | ||
| 20260503230059 | 15 | 274 | 1.6 | 3.2 | 0.00 | 0.00 | 0.00 | ||
| 20260503225052 | 16 | 23 | 6.4 | 1.6 | 0.00 | 0.00 | 0.00 | ||
| 20260503224046 | 17 | 304 | 1.6 | 0.0 | 0.00 | 0.00 | 0.00 | ||
| 20260503223038 | 17 | 240 | 9.7 | 9.7 | 0.00 | 0.00 | 0.00 | ||
| 20260503222032 | 17 | 307 | 8.0 | 8.0 | 0.00 | 0.00 | 0.00 | ||
| 20260503221027 | 18 | 295 | 4.8 | 6.4 | 0.00 | 0.00 | 0.00 | ||
| 20260503220024 | 18 | 280 | 4.8 | 6.4 | 0.00 | 0.00 | 0.00 | ||
| 20260503214002 | 18 | 295 | 4.8 | 3.2 | 0.00 | 0.00 | 0.00 | ||
| 20260503213002 | 18 | 267 | 3.2 | 6.4 | 0.00 | 0.00 | 0.00 | ||
| 20260503211956 | 18 | 280 | 6.4 | 8.0 | 0.00 | 0.00 | 0.00 | ||
| 20260503210951 | 18 | 343 | 1.6 | 4.8 | 0.00 | 0.00 | 0.00 | ||
| 20260503205944 | 17 | 280 | 8.0 | 4.8 | 0.00 | 0.00 | 0.00 | ||
| 20260503204934 | 18 | 333 | 6.4 | 6.4 | 0.00 | 0.00 | 0.00 | ||
| 20260503203930 | 18 | 255 | 4.8 | 12.9 | 0.00 | 0.00 | 0.00 | ||
| 20260503202927 | 18 | 345 | 9.7 | 3.2 | 0.00 | 0.00 | 0.00 |